Regional Weather Roundup
Issued by NWS

Home | Current Version | Previous Version | Text Only | Print | Product List | Glossary Off
Versions: 1 2 3 4 5 6 7 8 9 10 11 12 13 14 15 16 17 18 19 20 21 22 23 24 25 26 27 28 29 30 31 32 33 34 35 36 37 38 39 40 41 42 43 44 45 46 47 48 49 50

000
ASUS45 KCYS 301510
RWRWY

WYOMING REGIONAL WEATHER ROUNDUP
NATIONAL WEATHER SERVICE CHEYENNE WY
900 AM MDT THU JUL 30 2015

NOTE:  "FAIR" INDICATES FEW OR NO CLOUDS BELOW 12,000 FEET
WITH NO SIGNIFICANT WEATHER AND/OR OBSTRUCTIONS TO VISIBILITY.

WYZ001-301600-
YELLOWSTONE NATIONAL PARK

CITY           SKY/WX    TMP DP  RH WIND       PRES   REMARKS
LK YELLOWSTONE   N/A     52  42  69 SE3       30.58R
W YELLOWSTONE  NOT AVBL

$$
WYZ002>013-054>058-071-098>099-301600-
NORTHERN WYOMING

CITY           SKY/WX    TMP DP  RH WIND       PRES   REMARKS
JACKSON        FAIR      52  37  58 CALM      30.51S
CODY           FAIR      70  39  32 SW6       30.38S
GREYBULL       FAIR      64  36  35 CALM      30.33S
WORLAND        FAIR      65  31  28 S5        30.34S
SHERIDAN       FAIR      70  45  40 VRB3      30.31S
BUFFALO        FAIR      75  38  26 S7        30.37S
GILLETTE       FAIR      73  42  32 NE3       30.33S
HULETT         FAIR      70  45  40 SW7       30.33S
NEWCASTLE      FAIR      68  36  30 CALM      30.33S

$$
WYZ014>020-022>026-101>103-301600-
CENTRAL WYOMING

CITY           SKY/WX    TMP DP  RH WIND       PRES   REMARKS
BIG PINEY      FAIR      56  37  49 SW3       30.51R
PINEDALE       FAIR      55  32  41 CALM      30.51S
DUBOIS         FAIR      55  32  41 N7        30.51S
LANDER         FAIR      67  37  33 NW5       30.41R
RIVERTON       FAIR      67  33  28 N7        30.42R
CASPER         FAIR      66  36  32 W5        30.40S
DOUGLAS        FAIR      66  37  34 NW12      30.38S

$$
WYZ021-027>030-104>119-301600-
SOUTHERN WYOMING

CITY           SKY/WX    TMP DP  RH WIND       PRES   REMARKS
EVANSTON       FAIR      59  25  27 SW3       30.50R
KEMMERER       FAIR      57  28  33 N7        30.52R
FORT BRIDGER   SUNNY     66  28  24 E5        30.53R
ROCK SPRINGS   FAIR      60  27  28 CALM      30.48R
DIXON          FAIR      62  25  24 SE7       30.48S
RAWLINS        FAIR      62  19  19 CALM      30.48R
SARATOGA       FAIR      64  27  24 SE8       30.49S
LARAMIE        FAIR      62  37  39 S8        30.49S
CHEYENNE       FAIR      72  49  44 NE10      30.41R
TORRINGTON     FAIR      68  51  54 W5        30.31R
PINE BLUFFS    FAIR      70  50  49 N6        30.36S

$$



USA.gov is the U.S. government's official web portal to all federal, state and local government web resources and services.